Location: Newark
(45.5000°N, 11.4167°E)
Time: 19:27:16
(UTC+00:00)

Altair - Pass Details

Date: 02 September 2019
Orbit: 1501 x 1683 km, 47.2° (Epoch: 14 October)

Event Time Altitude Azimuth Distance (km) Brightness Sun altitude
Exits shadow 02:50:37 12° 278° (W) 3,702 9.1 -17.9°
Maximum altitude 02:59:59 82° 6° (N) 1,604 7.6 -16.5°
Drops below altitude 10° 03:09:29 10° 95° (E) 3,722 10.4 -15.0°
Sets 03:12:29 0° 96° (E) 4,684 11.0 -14.6°
